Sulphur Springs, TX

9:06 AM CDT on May 24, 2017 (GMT -0500)
Sulphur Springs Municipal

Weather History for KSLR - April, 2013

Change the Weather History Date:

Sunday, April 7, 2013

  Actual Average (KGVT) Record (KGVT)
Temperature  
Mean Temperature 65 °F -  
Max Temperature 71 °F 70 °F 86 °F (2006)
Min Temperature 59 °F 53 °F 32 °F (2009)
Growing Degree Days 15 (Base 50)    
Moisture  
Dew Point 56 °F    
Average Humidity 70    
Maximum Humidity 82    
Minimum Humidity 57    
Precipitation  
Precipitation 0.00 in - - ()
Sea Level Pressure  
Sea Level Pressure 29.90 in    
Wind  
Wind Speed 10 mph (South)    
Max Wind Speed 16 mph    
Max Gust Speed 23 mph    
Visibility 10 miles    
Events      
Averages and records for this station are not official NWS values.
T = Trace of Precipitation, MM = Missing Value Source: NWS Daily Summary

Daily Weather History Graph

Daily Weather History Graph

Search for Another Location

Airport or City:

Trip Planner

Search our weather history database for the weather conditions in past years. The results will help you decide how hot, cold, wet, or windy it might be!

Date:

Astronomy

Apr. 07, 2013 Rise Set
Actual Time 7:02 AM CDT 7:47 PM CDT
Civil Twilight 6:37 AM CDT 8:12 PM CDT
Nautical Twilight 6:07 AM CDT 8:42 PM CDT
Astronomical Twilight 5:37 AM CDT 9:12 PM CDT
Moon 5:12 AM CDT (4/7) 5:26 PM CDT (4/7)
Length of Visible Light 13h 35m
Length of Day
12h 45m
Waning Crescent, 8% of the Moon is Illuminated
Apr 7
Waning Crescent
Apr 10
New
Apr 18
First Quarter
Apr 25
Full
May 2
Last Quarter

Hourly Weather History & Observations

Time (CDT) Temp. Dew Point Humidity Pressure Visibility Wind Dir Wind Speed Gust Speed Precip Events Conditions
12:15 AM 64.4 °F 53.6 °F 68% 29.93 in 10.0 mi South 8.1 mph - N/A   Clear
12:35 AM 64.4 °F 53.6 °F 68% 29.93 in 10.0 mi South 9.2 mph - N/A   Clear
12:55 AM 64.4 °F 53.6 °F 68% 29.93 in 10.0 mi South 11.5 mph 16.1 mph N/A   Clear
1:15 AM 64.4 °F 53.6 °F 68% 29.94 in 10.0 mi South 9.2 mph 17.3 mph N/A   Clear
1:35 AM 64.4 °F 53.6 °F 68% 29.93 in 10.0 mi South 11.5 mph - N/A   Clear
1:55 AM 62.6 °F 53.6 °F 72% 29.94 in 10.0 mi South 11.5 mph 17.3 mph N/A   Clear
2:15 AM 62.6 °F 53.6 °F 72% 29.93 in 10.0 mi South 10.4 mph 16.1 mph N/A   Clear
2:35 AM 62.6 °F 53.6 °F 72% 29.93 in 10.0 mi South 10.4 mph 16.1 mph N/A   Clear
2:55 AM 62.6 °F 53.6 °F 72% 29.94 in 10.0 mi South 11.5 mph - N/A   Clear
3:15 AM 62.6 °F 53.6 °F 72% 29.93 in 10.0 mi South 8.1 mph - N/A   Clear
3:35 AM 60.8 °F 53.6 °F 77% 29.93 in 10.0 mi South 8.1 mph - N/A   Clear
3:55 AM 60.8 °F 53.6 °F 77% 29.93 in 10.0 mi South 9.2 mph - N/A   Clear
4:15 AM 60.8 °F 53.6 °F 77% 29.94 in 10.0 mi South 8.1 mph - N/A   Clear
4:35 AM 60.8 °F 53.6 °F 77% 29.94 in 10.0 mi South 6.9 mph - N/A   Clear
4:55 AM 60.8 °F 53.6 °F 77% 29.94 in 10.0 mi South 5.8 mph - N/A   Clear
5:15 AM 59.0 °F 53.6 °F 82% 29.94 in 10.0 mi SSE 8.1 mph - N/A   Scattered Clouds
5:35 AM 59.0 °F 53.6 °F 82% 29.94 in 10.0 mi SSE 9.2 mph - N/A   Overcast
5:55 AM 60.8 °F 55.4 °F 82% 29.94 in 10.0 mi SSE 10.4 mph - N/A   Overcast
6:15 AM 60.8 °F 55.4 °F 82% 29.94 in 10.0 mi SSE 10.4 mph - N/A   Mostly Cloudy
6:35 AM 60.8 °F 55.4 °F 82% 29.94 in 10.0 mi South 9.2 mph - N/A   Mostly Cloudy
6:55 AM 60.8 °F 55.4 °F 82% 29.95 in 10.0 mi South 9.2 mph - N/A   Mostly Cloudy
7:15 AM 60.8 °F 55.4 °F 82% 29.95 in 10.0 mi South 9.2 mph - N/A   Mostly Cloudy
7:35 AM 60.8 °F 55.4 °F 82% 29.96 in 10.0 mi South 11.5 mph - N/A   Scattered Clouds
7:55 AM 60.8 °F 55.4 °F 82% 29.96 in 10.0 mi South 8.1 mph - N/A   Scattered Clouds
8:15 AM 60.8 °F 55.4 °F 82% 29.97 in 10.0 mi South 6.9 mph - N/A   Scattered Clouds
8:35 AM 62.6 °F 55.4 °F 77% 29.96 in 10.0 mi South 9.2 mph - N/A   Scattered Clouds
8:55 AM 62.6 °F 55.4 °F 77% 29.97 in 10.0 mi South 6.9 mph 16.1 mph N/A   Mostly Cloudy
9:15 AM 62.6 °F 55.4 °F 77% 29.97 in 10.0 mi South 6.9 mph 16.1 mph N/A   Mostly Cloudy
9:35 AM 62.6 °F 55.4 °F 77% 29.96 in 10.0 mi South 9.2 mph - N/A   Mostly Cloudy
9:55 AM 64.4 °F 57.2 °F 77% 29.96 in 10.0 mi South 12.7 mph - N/A   Mostly Cloudy
10:15 AM 64.4 °F 57.2 °F 77% 29.97 in 10.0 mi South 15.0 mph - N/A   Mostly Cloudy
10:35 AM 64.4 °F 57.2 °F 77% 29.97 in 10.0 mi South 11.5 mph 16.1 mph N/A   Mostly Cloudy
10:55 AM 66.2 °F 57.2 °F 73% 29.98 in 10.0 mi SSW 16.1 mph - N/A   Mostly Cloudy
11:15 AM 66.2 °F 57.2 °F 73% 29.98 in 10.0 mi South 9.2 mph - N/A   Overcast
11:35 AM 68.0 °F 57.2 °F 68% 29.97 in 10.0 mi South 13.8 mph 20.7 mph N/A   Mostly Cloudy
11:55 AM 68.0 °F 57.2 °F 68% 29.96 in 10.0 mi South 12.7 mph - N/A   Mostly Cloudy
12:15 PM 68.0 °F 57.2 °F 68% 29.95 in 10.0 mi South 11.5 mph 21.9 mph N/A   Mostly Cloudy
12:35 PM 68.0 °F 57.2 °F 68% 29.95 in 10.0 mi South 16.1 mph - N/A   Mostly Cloudy
12:55 PM 69.8 °F 57.2 °F 64% 29.94 in 10.0 mi South 10.4 mph - N/A   Overcast
1:15 PM 68.0 °F 57.2 °F 68% 29.93 in 10.0 mi South 15.0 mph - N/A   Overcast
1:35 PM 69.8 °F 59.0 °F 68% 29.91 in 10.0 mi South 13.8 mph 18.4 mph N/A   Overcast
1:55 PM 69.8 °F 57.2 °F 64% 29.90 in 10.0 mi South 10.4 mph 20.7 mph N/A   Overcast
2:15 PM 69.8 °F 57.2 °F 64% 29.90 in 10.0 mi South 10.4 mph 18.4 mph N/A   Overcast
2:35 PM 69.8 °F 57.2 °F 64% 29.89 in 10.0 mi South 13.8 mph 19.6 mph N/A   Overcast
2:55 PM 69.8 °F 57.2 °F 64% 29.88 in 10.0 mi SSE 11.5 mph 20.7 mph N/A   Overcast
3:15 PM 69.8 °F 57.2 °F 64% 29.87 in 10.0 mi SSE 12.7 mph 18.4 mph N/A   Overcast
3:35 PM 69.8 °F 57.2 °F 64% 29.87 in 10.0 mi South 12.7 mph 20.7 mph N/A   Overcast
3:55 PM 69.8 °F 57.2 °F 64% 29.85 in 10.0 mi SSE 11.5 mph 17.3 mph N/A   Overcast
4:15 PM 71.6 °F 55.4 °F 57% 29.85 in 10.0 mi South 13.8 mph 19.6 mph N/A   Overcast
4:35 PM 71.6 °F 55.4 °F 57% 29.85 in 10.0 mi South 13.8 mph 20.7 mph N/A   Overcast
4:55 PM 71.6 °F 55.4 °F 57% 29.84 in 10.0 mi South 12.7 mph 18.4 mph N/A   Overcast
5:15 PM 71.6 °F 55.4 °F 57% 29.83 in 10.0 mi SSE 10.4 mph - N/A   Overcast
5:35 PM 71.6 °F 57.2 °F 60% 29.83 in 10.0 mi South 10.4 mph 18.4 mph N/A   Overcast
5:55 PM 71.6 °F 57.2 °F 60% 29.82 in 10.0 mi SSE 13.8 mph 17.3 mph N/A   Overcast
6:15 PM 71.6 °F 57.2 °F 60% 29.82 in 10.0 mi SSE 11.5 mph 17.3 mph N/A   Overcast
6:35 PM 71.6 °F 57.2 °F 60% 29.82 in 10.0 mi SSE 10.4 mph - N/A   Overcast
6:55 PM 71.6 °F 57.2 °F 60% 29.82 in 10.0 mi SSE 12.7 mph - N/A   Overcast
7:15 PM 71.6 °F 57.2 °F 60% 29.82 in 10.0 mi SSE 8.1 mph - N/A   Overcast
7:35 PM 71.6 °F 57.2 °F 60% 29.82 in 10.0 mi SSE 8.1 mph - N/A   Overcast
7:55 PM 69.8 °F 57.2 °F 64% 29.82 in 10.0 mi SSE 8.1 mph - N/A   Overcast
8:15 PM 68.0 °F 57.2 °F 68% 29.82 in 10.0 mi SE 4.6 mph - N/A   Mostly Cloudy
8:35 PM 68.0 °F 57.2 °F 68% 29.83 in 10.0 mi SSE 4.6 mph - N/A   Overcast
8:55 PM 68.0 °F 57.2 °F 68% 29.83 in 10.0 mi SE 4.6 mph - N/A   Overcast
9:15 PM 68.0 °F 57.2 °F 68% 29.83 in 10.0 mi SE 5.8 mph - N/A   Overcast
9:35 PM 68.0 °F 57.2 °F 68% 29.82 in 10.0 mi SE 6.9 mph - N/A   Overcast
9:55 PM 68.0 °F 57.2 °F 68% 29.82 in 10.0 mi SSE 6.9 mph - N/A   Mostly Cloudy
10:15 PM 68.0 °F 57.2 °F 68% 29.82 in 10.0 mi SSE 6.9 mph - N/A   Mostly Cloudy
10:35 PM 68.0 °F 55.4 °F 64% 29.82 in 10.0 mi SSE 10.4 mph - N/A   Scattered Clouds
10:55 PM 68.0 °F 55.4 °F 64% 29.82 in 10.0 mi South 10.4 mph 17.3 mph N/A   Clear
11:15 PM 69.8 °F 55.4 °F 60% 29.81 in 10.0 mi South 11.5 mph - N/A   Clear
11:35 PM 69.8 °F 55.4 °F 60% 29.81 in 10.0 mi South 12.7 mph 20.7 mph N/A   Clear
11:55 PM 68.0 °F 55.4 °F 64% 29.81 in 10.0 mi South 12.7 mph 23.0 mph N/A   Clear